Regional Weather Roundup
Issued by NWS

Home | Current Version | Previous Version | Text Only | Print | Product List | Glossary Off
Versions: 1 2 3 4 5 6 7 8 9 10 11 12 13 14 15 16 17 18 19 20 21 22 23 24 25 26 27 28 29 30 31 32 33 34 35 36 37 38 39 40 41 42 43 44 45 46 47 48 49 50

000
ASUS43 KMPX 231110
RWRMN
WEATHER ROUNDUP FOR MINNESOTA
NATIONAL WEATHER SERVICE TWIN CITIES/CHANHASSEN MN
600 AM CDT SAT SEP 23 2017


NOTE: "FAIR" INDICATES FEW OR NO CLOUDS BELOW 12,000 FEET WITH NO
SIGNIFICANT WEATHER AND/OR OBSTRUCTIONS TO VISIBILITY. N/A MEANS
CURRENT SKY AND/OR WEATHER CONDITIONS ARE NOT AVAILABLE.

MNZ060>063-068>070-231200-
   Twin Cities Metro

CITY           SKY/WX    TMP DP  RH WIND       PRES   REMARKS
TWIN CITIES    MOCLDY    78  69  73 S10       29.91R
ST PAUL        CLEAR     72  69  90 SE12      29.91R
CRYSTAL        CLOUDY    76  65  68 S5        29.89R
BLAINE         CLEAR     75  66  73 S5        29.91R
LAKEVILLE      CLEAR     72  66  83 S3        29.92R
EDEN PRAIRIE   CLEAR     75  68  78 S7        29.90R
SOUTH ST PAUL  CLEAR     73  67  80 S3        29.92R
LAKE ELMO      FAIR      72  68  88 S6        29.93R
$$
MNZ001>005-007-008-013>017-022>024-027-028-231200-
   Northwest Minnesota

CITY           SKY/WX    TMP DP  RH WIND       PRES   REMARKS
BEMIDJI        CLOUDY    55  54  97 W9        29.88R
HALLOCK          N/A     50  48  93 N16G22    29.92F
ROSEAU         CLOUDY    54  48  82 NW10      29.90R
WARROAD        CLOUDY    54  48  82 W7        29.88R FOG
THIEF RVR FALL CLOUDY    50  49  96 NW15      29.92R
CROOKSTON      CLOUDY    50  48  93 N16G25    29.95S
FOSSTON        CLOUDY    50  48  93 NW9       29.93R
DETROIT LAKES  LGT RAIN  52  52 100 NW13      29.95R
MOORHEAD       CLOUDY    52  48  87 N9        29.97R
PARK RAPIDS    CLOUDY    57  55  93 W10       29.89R
MAHNOMEN       CLOUDY    51  49  95 NW10      29.92R
$$
MNZ006-009>011-018-025>026-231200-
   North Central Minnesota

CITY           SKY/WX    TMP DP  RH WIND       PRES   REMARKS
BAUDETTE       CLOUDY    55  55 100 NW12      29.85R
FLAG ISLAND    CLOUDY    54  54 100 NW15      29.85R
INTL FALLS     CLOUDY    68  66  93 SW10      29.82R
WASKISH        CLOUDY    57  57 100 W12G17    29.87R FOG
BIG FORK       CLOUDY    66  63  88 CALM      29.83F
LONGVILLE      LGT RAIN  66  64  94 CALM      29.86F
GRAND RAPIDS   LGT RAIN  66  64  93 S5        29.87F
CRANE LAKE     CLOUDY    72  64  78 S6        29.84S
ORR            CLOUDY    70  61  73 S7        29.82F
COOK           LGT RAIN  70  64  83 S7        29.88R
WALKER         CLOUDY    61  60  97 W6        29.89R
$$
MNZ012-019>021-037-231200-
   Northeast Minnesota

CITY           SKY/WX    TMP DP  RH WIND       PRES   REMARKS
DULUTH         MOCLDY    70  67  90 W7        29.90S
ELY            LGT RAIN  70  66  88 SW6       29.87F
HIBBING        LGT RAIN  66  65  96 SE5       29.85F
EVELETH        LGT RAIN  65  61  86 S3        29.88F
DULUTH HARBOR  CLOUDY    64  63  94 E10       29.88S
TWO HARBORS    MOCLDY    70  64  83 CALM      29.87S HAZE
GRAND MARAIS     N/A     63  63 100 CALM      29.86R
G MARAIS ARPRT LGT RAIN  66  61  82 W3        29.91S
$$
MNZ029>031-032-039>041-046>048-054>057-064-231200-
   West Central Minnesota

CITY           SKY/WX    TMP DP  RH WIND       PRES   REMARKS
FERGUS FALLS   LGT RAIN  54  54 100 N17       29.94R
WHEATON        RAIN      55  52  88 NW7       29.97F
MORRIS         CLOUDY    55  55 100 NW14      29.94R
ALEXANDRIA     CLOUDY    59  58  96 NW7       29.95R
ELBOW LAKE     LGT RAIN  54  54  99 W14G21    29.95R
WADENA         LGT RAIN  57  57 100 CALM      29.89R
GLENWOOD       CLOUDY    61  61 100 W8        29.92R
APPLETON       CLOUDY    59  54  82 NW13G21   29.95R
BENSON         CLOUDY    59  55  88 N10       29.95R
ORTONVILLE     CLOUDY    55  54  94 N12       29.94R
MADISON        CLOUDY    61  61 100 NW13G20   29.96R
WILLMAR        FAIR      66  64  94 NW9       29.90R
$$
MNZ033>034-036-042>043-049>051-058-059-231200-
   Central Minnesota

CITY           SKY/WX    TMP DP  RH WIND       PRES   REMARKS
ST CLOUD       CLOUDY    70  69  97 SE6       29.86F
SAUK CENTRE    FAIR      64  63  97 W7        29.90R
PAYNESVILLE    CLOUDY    68  66  95 CALM      29.88S
AITKIN         CLOUDY    64  63  94 CALM      29.85F
PINE RIVER     LGT RAIN  63  61  94 NW3       29.90R
BRAINERD       CLOUDY    66  65  96 NW3       29.87S FOG
STAPLES        CLOUDY    61  61 100 W13       29.91R
LITTLE FALLS     N/A     64  61  88 CALM      29.86F FOG
LITCHFIELD     MOCLDY    72  72 100 CALM      29.88S
BUFFALO        CLOUDY    73  66  79 SE5       29.89S
MAPLE LAKE     CLOUDY    73  69  89 CALM      29.89S
HUTCHINSON     PTCLDY    70  68  93 CALM      29.90R
$$
MNZ037-044-045-052-053-231200-
   East Central Minnesota

CITY           SKY/WX    TMP DP  RH WIND       PRES   REMARKS
PRINCETON      CLOUDY    73  68  83 SE6       29.88S
MORA           CLOUDY    70  64  83 S6        29.89F
CAMBRIDGE      CLOUDY    75  64  69 S7        29.89S
RUSH CITY      CLOUDY    71  67  86 S5        29.90S
MOOSE LAKE     CLOUDY    72  64  78 CALM      29.87F
HINCKLEY       FAIR      72  70  94 CALM      29.89S
CLOQUET        CLOUDY    72  64  78 CALM      29.89S
MCGREGOR       CLOUDY    68  64  88 CALM      29.87F
$$
MNZ071>073-080-081-089-090-097-098-231200-
   Southwest Minnesota

CITY           SKY/WX    TMP DP  RH WIND       PRES   REMARKS
MONTEVIDEO     CLOUDY    59  59 100 N13G18    29.95R
GRANITE FALLS  CLOUDY    62  60  92 W14G21    29.94R
CANBY          CLOUDY    58  55  89 W12G17    29.97R
MARSHALL       CLOUDY    59  57  93 NW17G23   29.94R
REDWOOD FALLS  MOCLDY    69  66  90 N3        29.88R
OLIVIA         CLOUDY    66  64  94 CALM      29.87R FOG
PIPESTONE      CLOUDY    63  61  94 N12G17    29.94R
WINDOM         CLEAR     72  66  83 SW7       29.91R
WORTHINGTON    CLEAR     72  67  84 S13G20    29.91R
JACKSON        CLEAR     70  64  83 S12       29.91R
TRACY          PTCLDY    64  64  98 NW7       29.93R
SLAYTON        CLEAR     71  66  85 S7        29.90R
$$
MNZ065>067-074>077-082>085-091>093-231200-
   South Central Minnesota

CITY           SKY/WX    TMP DP  RH WIND       PRES   REMARKS
NEW ULM        CLOUDY    70  66  88 CALM      29.89R
ST JAMES       CLEAR     72  66  83 S6        29.91R
FAIRMONT       CLEAR     71  67  87 S10       29.92R
FARIBAULT      CLEAR     72  66  83 S8        29.93R
OWATONNA       CLEAR     73  66  78 S12       29.94R
WASECA         CLEAR     72  64  78 S9        29.94R
ALBERT LEA     CLEAR     73  68  83 S7        29.96R
$$
MNZ078>079-086>088-094>096-231200-
   Southeast Minnesota

CITY           SKY/WX    TMP DP  RH WIND       PRES   REMARKS
ROCHESTER      CLEAR     71  66  84 S9        29.99R
RED WING       CLEAR     73  64  73 SE5       29.93R
STANTON        CLEAR     73  67  79 S7        29.91R
DODGE CENTER   CLEAR     72  64  78 S10       29.97R
WINONA         CLEAR     70  64  83 CALM      29.99R
AUSTIN         CLEAR     70  64  83 S6        29.98R
PRESTON        CLEAR     67  63  89 S7        30.01R
$$
ABBREVIATIONS USED IN REMARKS
   TC - TEMPERATURES IN CELSIUS
  WCI - WIND CHILL INDEX
   HX - HEAT INDEX
  VSB - VISIBILITY
$$




USA.gov is the U.S. government's official web portal to all federal, state and local government web resources and services.